Location: Neu-Ulm
(48.3873°N, 10.0192°E)
Time: 12:41:34
(UTC+02:00)

ISS - Pass Details

Date: 11 February 2018
Orbit: 403 x 408 km, 51.6° (Epoch: 22 September)

Event Time Altitude Azimuth Distance (km) Brightness Sun altitude
Rises 19:27:48 0° 282° (WNW) 2,322 1.5 -19.2°
Reaches altitude 10° 19:30:47 10° 252° (WSW) 1,460 0.0 -19.7°
Maximum altitude 19:32:17 13° 225° (SW) 1,311 -0.7 -19.9°
Drops below altitude 10° 19:33:47 10° 197° (SSW) 1,459 -0.8 -20.2°
Enters shadow 19:35:00 - 181° (S) 1,754 -0.6 -20.4°
